FW9607 Weather Reports


Display with metric or nautical units.
time (UTC)temp
F
wind
direction
speed
MPH
gust
MPH
rain 1hr
in
rain 24hr
in
rain mn
in
humidity
%
barometer
mb
20260901022600 87 0 3.0 9.0 0.00 0.00 0.00 77 1012.3
20260901022102 87 118 3.0 9.0 0.00 0.00 0.00 76 1012.3
20260901021101 87 112 3.0 7.0 0.00 0.00 0.00 76 1012.1
20260901015558 87 87 3.0 9.0 0.00 0.00 0.00 75 1012.1
20260901015056 87 152 4.0 9.0 0.00 0.00 0.00 75 1012.0
20260901014556 87 118 4.0 9.0 0.00 0.00 0.00 74 1012.0
20260901014056 87 141 4.0 8.0 0.00 0.00 0.00 74 1011.9
20260901013555 87 74 4.0 10.0 0.00 0.00 0.00 74 1011.9
20260901013056 87 166 4.0 10.0 0.00 0.00 0.00 73 1011.9
20260901012556 87 102 4.0 8.0 0.00 0.00 0.00 73 1011.8
20260901012056 87 139 4.0 8.0 0.00 0.00 0.00 73 1011.7
20260901011556 87 150 3.0 8.0 0.00 0.00 0.00 72 1011.7
20260901011056 88 154 3.0 8.0 0.00 0.00 0.00 72 1011.6
20260901010557 88 119 3.0 7.0 0.00 0.00 0.00 71 1011.5
20260901010057 88 102 4.0 11.0 0.00 0.00 0.00 71 1011.5
20260901005556 88 258 4.0 11.0 0.00 0.00 0.00 71 1011.4
20260901005054 88 127 5.0 11.0 0.00 0.00 0.00 70 1011.3
20260901004051 89 89 5.0 11.0 0.00 0.00 0.00 68 1011.3
20260901003551 89 158 4.0 11.0 0.00 0.00 0.00 68 1011.2
20260901003050 89 85 4.0 10.0 0.00 0.00 0.00 66 1011.2
20260901002550 89 121 4.0 11.0 0.00 0.00 0.00 65 1011.2
20260901002050 90 137 5.0 11.0 0.00 0.00 0.00 65 1011.2
20260901001050 91 120 5.0 11.0 0.00 0.00 0.00 63 1011.1
20260901000051 91 89 5.0 14.0 0.00 0.00 0.00 62 1011.0
20260831235551 91 130 5.0 12.0 0.00 0.00 0.00 59 1011.0
20260831235051 91 132 5.0 12.0 0.00 0.00 0.00 58 1011.0
20260831234549 92 115 5.0 10.0 0.00 0.00 0.00 57 1010.9
20260831234048 92 120 4.0 11.0 0.00 0.00 0.00 58 1010.8
20260831233546 92 152 4.0 12.0 0.00 0.00 0.00 56 1010.8
20260831233042 92 128 4.0 12.0 0.00 0.00 0.00 56 1010.8
20260831232542 92 130 5.0 12.0 0.00 0.00 0.00 54 1010.7
20260831231542 93 121 5.0 11.0 0.00 0.00 0.00 51 1010.8
20260831230543 93 104 5.0 13.0 0.00 0.00 0.00 51 1010.7
20260831230043 94 142 5.0 13.0 0.00 0.00 0.00 50 1010.8
20260831225543 94 122 5.0 11.0 0.00 0.00 0.00 49 1010.9
20260831224543 94 124 5.0 13.0 0.00 0.00 0.00 46 1010.8
20260831223543 95 130 5.0 11.0 0.00 0.00 0.00 49 1010.7
20260831223043 95 144 4.0 9.0 0.00 0.00 0.00 49 1010.8
20260831222541 95 201 5.0 10.0 0.00 0.00 0.00 48 1010.8
20260831222042 95 122 5.0 11.0 0.00 0.00 0.00 47 1010.7
20260831221038 96 121 5.0 10.0 0.00 0.00 0.00 46 1010.8
20260831220537 97 80 4.0 10.0 0.00 0.00 0.00 45 1010.7
20260831220038 97 115 4.0 9.0 0.00 0.00 0.00 43 1010.8
20260831215538 96 110 5.0 11.0 0.00 0.00 0.00 43 1010.7
20260831215037 97 111 5.0 11.0 0.00 0.00 0.00 43 1010.7
20260831214537 97 129 4.0 9.0 0.00 0.00 0.00 43 1010.8
20260831214038 97 138 4.0 9.0 0.00 0.00 0.00 44 1010.9
20260831213538 97 112 4.0 9.0 0.00 0.00 0.00 43 1010.8
20260831213038 97 109 4.0 10.0 0.00 0.00 0.00 44 1010.8
20260831212538 97 130 5.0 12.0 0.00 0.00 0.00 44 1010.7
20260831212038 97 86 5.0 12.0 0.00 0.00 0.00 45 1010.9
20260831211539 97 133 4.0 10.0 0.00 0.00 0.00 46 1011.0
20260831210539 97 98 5.0 11.0 0.00 0.00 0.00 48 1011.0
20260831210036 97 127 5.0 12.0 0.00 0.00 0.00 48 1011.1
20260831205535 98 144 4.0 12.0 0.00 0.00 0.00 49 1011.1
20260831205036 98 109 3.0 8.0 0.00 0.00 0.00 49 1011.1
20260831204536 98 165 4.0 8.0 0.00 0.00 0.00 49 1011.3
20260831203536 98 122 4.0 10.0 0.00 0.00 0.00 50 1011.4
20260831203036 97 131 5.0 10.0 0.00 0.00 0.00 52 1011.5
20260831202536 98 116 4.0 11.0 0.00 0.00 0.00 52 1011.6
20260831202036 98 106 3.0 11.0 0.00 0.00 0.00 50 1011.6
20260831201536 98 78 3.0 9.0 0.00 0.00 0.00 50 1011.7
20260831201036 98 121 3.0 9.0 0.00 0.00 0.00 50 1011.8
20260831200536 98 102 3.0 7.0 0.00 0.00 0.00 51 1011.8
20260831200038 99 139 4.0 10.0 0.00 0.00 0.00 48 1011.9
20260831195536 98 128 4.0 10.0 0.00 0.00 0.00 50 1012.0
20260831195038 98 173 3.0 9.0 0.00 0.00 0.00 48 1012.0
20260831194537 99 97 3.0 10.0 0.00 0.00 0.00 47 1012.1
20260831194036 98 192 3.0 10.0 0.00 0.00 0.00 48 1012.1
20260831193534 98 119 3.0 6.0 0.00 0.00 0.00 48 1012.2
20260831193036 98 94 3.0 8.0 0.00 0.00 0.00 48 1012.2
20260831192534 98 103 3.0 8.0 0.00 0.00 0.00 46 1012.3
20260831191534 98 155 3.0 9.0 0.00 0.00 0.00 47 1012.4
20260831191035 98 83 4.0 10.0 0.00 0.00 0.00 47 1012.4
20260831190534 98 71 4.0 10.0 0.00 0.00 0.00 47 1012.5
20260831190034 98 113 3.0 8.0 0.00 0.00 0.00 47 1012.4
20260831185534 98 90 3.0 8.0 0.00 0.00 0.00 47 1012.5
20260831185034 98 103 4.0 8.0 0.00 0.00 0.00 47 1012.6
20260831184034 98 32 3.0 9.0 0.00 0.00 0.00 46 1012.6
20260831183533 98 84 2.0 9.0 0.00 0.00 0.00 47 1012.8
20260831182533 98 218 2.0 6.0 0.00 0.00 0.00 46 1012.9
20260831182032 98 138 2.0 6.0 0.00 0.00 0.00 47 1012.9
20260831181531 97 164 3.0 10.0 0.00 0.00 0.00 46 1013.0
20260831181031 96 144 3.0 10.0 0.00 0.00 0.00 48 1013.0
20260831180531 96 19 3.0 8.0 0.00 0.00 0.00 50 1013.0
20260831180032 96 154 3.0 10.0 0.00 0.00 0.00 49 1013.1
20260831175532 96 146 4.0 10.0 0.00 0.00 0.00 50 1013.2
20260831175032 97 95 3.0 10.0 0.00 0.00 0.00 49 1013.2
20260831174532 97 81 2.0 9.0 0.00 0.00 0.00 48 1013.2
20260831174032 96 142 3.0 8.0 0.00 0.00 0.00 47 1013.3
20260831173532 96 178 3.0 8.0 0.00 0.00 0.00 48 1013.4
20260831173032 96 219 3.0 8.0 0.00 0.00 0.00 48 1013.5
20260831172030 96 130 2.0 8.0 0.00 0.00 0.00 49 1013.5
20260831171532 96 146 3.0 11.0 0.00 0.00 0.00 49 1013.5
20260831171027 95 124 4.0 11.0 0.00 0.00 0.00 50 1013.6
20260831170531 95 184 3.0 8.0 0.00 0.00 0.00 49 1013.7
20260831170028 95 134 3.0 8.0 0.00 0.00 0.00 51 1013.7
20260831165524 95 147 3.0 6.0 0.00 0.00 0.00 51 1013.7
20260831165024 94 106 3.0 8.0 0.00 0.00 0.00 53 1013.8
20260831164020 94 199 3.0 7.0 0.00 0.00 0.00 54 1013.7
20260831163521 94 105 3.0 7.0 0.00 0.00 0.00 54 1013.9
20260831163022 94 122 3.0 7.0 0.00 0.00 0.00 53 1013.7
20260831162521 94 222 3.0 10.0 0.00 0.00 0.00 55 1013.7
20260831161022 92 192 3.0 10.0 0.00 0.00 0.00 57 1013.8
20260831160521 92 205 3.0 10.0 0.00 0.00 0.00 59 1013.8
20260831160023 92 159 4.0 11.0 0.00 0.00 0.00 59 1013.8
20260831155020 92 186 4.0 11.0 0.00 0.00 0.00 60 1013.7
20260831154523 91 228 4.0 9.0 0.00 0.00 0.00 62 1013.8
20260831154022 91 262 4.0 10.0 0.00 0.00 0.00 62 1013.8
20260831153523 90 182 4.0 10.0 0.00 0.00 0.00 63 1013.7
20260831153021 90 171 3.0 11.0 0.00 0.00 0.00 64 1013.7
20260831152523 90 161 4.0 11.0 0.00 0.00 0.00 65 1013.6
20260831150523 89 181 4.0 12.0 0.00 0.00 0.00 67 1013.7
20260831150021 89 192 4.0 8.0 0.00 0.00 0.00 71 1013.7
20260831145022 88 250 4.0 11.0 0.00 0.00 0.00 71 1013.6
20260831144014 87 119 4.0 11.0 0.00 0.00 0.00 73 1013.6
20260831143514 87 194 4.0 11.0 0.00 0.00 0.00 74 1013.6
20260831143010 87 190 5.0 11.0 0.00 0.00 0.00 75 1013.7
20260831142514 87 166 4.0 11.0 0.00 0.00 0.00 75 1013.6
20260831142011 87 182 3.0 9.0 0.00 0.00 0.00 76 1013.5
20260831141514 87 177 3.0 8.0 0.00 0.00 0.00 77 1013.4
20260831140514 86 143 2.0 6.0 0.00 0.00 0.00 79 1013.4
20260831135514 86 146 2.0 5.0 0.00 0.00 0.00 81 1013.3
20260831135011 85 139 2.0 5.0 0.00 0.00 0.00 81 1013.2
20260831133514 84 169 3.0 4.0 0.00 0.00 0.00 83 1013.2
20260831132957 84 120 3.0 4.0 0.00 0.00 0.00 84 1013.2
20260831132503 84 151 2.0 4.0 0.00 0.00 0.00 84 1013.2
20260831131943 83 156 2.0 4.0 0.00 0.00 0.00 85 1013.2
20260831130943 82 171 2.0 4.0 0.00 0.00 0.00 86 1013.2
20260831130448 82 124 2.0 3.0 0.00 0.00 0.00 87 1013.1
20260831124944 81 140 2.0 3.0 0.00 0.00 0.00 88 1013.0
20260831123947 81 167 2.0 3.0 0.00 0.00 0.00 89 1012.9
20260831122944 81 130 2.0 3.0 0.00 0.00 0.00 89 1012.7
20260831122448 81 152 2.0 2.0 0.00 0.00 0.00 89 1012.7
20260831121941 81 154 2.0 2.0 0.00 0.00 0.00 89 1012.7
20260831120928 81 182 2.0 3.0 0.00 0.00 0.00 89 1012.7
20260831115928 81 126 1.0 2.0 0.00 0.00 0.00 89 1012.6
20260831115428 81 190 2.0 2.0 0.00 0.00 0.00 88 1012.5
20260831114928 81 170 2.0 2.0 0.00 0.00 0.00 88 1012.5
20260831114429 81 164 2.0 2.0 0.00 0.00 0.00 88 1012.5
20260831113928 81 167 2.0 3.0 0.00 0.00 0.00 88 1012.5
20260831113428 81 176 2.0 3.0 0.00 0.00 0.00 88 1012.4
20260831112928 81 145 2.0 3.0 0.00 0.00 0.00 88 1012.3
20260831112429 81 153 2.0 2.0 0.00 0.00 0.00 88 1012.3
20260831111429 81 162 2.0 3.0 0.00 0.00 0.00 89 1012.4
20260831110427 82 157 1.0 2.0 0.00 0.00 0.00 88 1012.4
20260831105904 82 167 1.0 2.0 0.00 0.00 0.00 88 1012.5
20260831105346 82 161 1.0 2.0 0.00 0.00 0.00 88 1012.5
20260831103846 82 157 1.0 2.0 0.00 0.00 0.00 88 1012.5
20260831103346 82 155 1.0 2.0 0.00 0.00 0.00 88 1012.5
20260831102846 82 145 1.0 2.0 0.00 0.00 0.00 88 1012.5
20260831102345 82 154 2.0 3.0 0.00 0.00 0.00 88 1012.5
20260831101846 82 181 2.0 3.0 0.00 0.00 0.00 88 1012.6
20260831101346 82 131 2.0 3.0 0.00 0.00 0.00 88 1012.6
20260831100845 82 123 2.0 3.0 0.00 0.00 0.00 88 1012.6
20260831100344 82 180 2.0 2.0 0.00 0.00 0.00 87 1012.6
20260831095344 82 119 2.0 3.0 0.00 0.00 0.00 87 1012.7
20260831094842 82 141 1.0 2.0 0.00 0.00 0.00 87 1012.6
20260831094344 82 113 1.0 2.0 0.00 0.00 0.00 87 1012.7
20260831093843 82 162 1.0 2.0 0.00 0.00 0.00 87 1012.7
20260831093343 82 156 1.0 3.0 0.00 0.00 0.00 87 1012.7
20260831092831 82 166 2.0 3.0 0.00 0.00 0.00 87 1012.6
20260831092330 82 163 2.0 3.0 0.00 0.00 0.00 86 1012.6
20260831091830 82 116 1.0 2.0 0.00 0.00 0.00 86 1012.6
20260831091331 82 123 2.0 3.0 0.00 0.00 0.00 86 1012.7
20260831090331 83 173 1.0 2.0 0.00 0.00 0.00 86 1012.7
20260831085830 83 127 2.0 3.0 0.00 0.00 0.00 86 1012.8
20260831085331 83 178 2.0 3.0 0.00 0.00 0.00 86 1012.8
20260831084830 83 113 2.0 3.0 0.00 0.00 0.00 86 1012.8
20260831084331 83 125 1.0 3.0 0.00 0.00 0.00 86 1012.8
20260831083822 83 135 1.0 3.0 0.00 0.00 0.00 85 1012.8
20260831083317 83 154 1.0 3.0 0.00 0.00 0.00 85 1012.9
20260831082816 83 160 1.0 3.0 0.00 0.00 0.00 85 1012.9
20260831082316 83 164 1.0 2.0 0.00 0.00 0.00 85 1012.9
20260831081807 83 167 1.0 2.0 0.00 0.00 0.00 85 1012.9
20260831081248 83 189 1.0 2.0 0.00 0.00 0.00 85 1012.9
20260831080751 83 179 1.0 2.0 0.00 0.00 0.00 85 1012.9
20260831080248 83 155 1.0 2.0 0.00 0.00 0.00 85 1013.0
20260831075752 83 196 1.0 2.0 0.00 0.00 0.00 85 1013.0
20260831075248 83 147 1.0 2.0 0.00 0.00 0.00 85 1013.0
20260831074753 83 193 1.0 2.0 0.00 0.00 0.00 85 1013.0
20260831073732 83 140 1.0 3.0 0.00 0.00 0.00 85 1013.1
20260831073231 83 151 1.0 2.0 0.00 0.00 0.00 85 1013.1
20260831072722 83 130 2.0 3.0 0.00 0.00 0.00 85 1013.1
20260831072219 83 134 2.0 3.0 0.00 0.00 0.00 85 1013.1
20260831071722 83 151 1.0 3.0 0.00 0.00 0.00 86 1013.2
20260831071218 83 150 1.0 2.0 0.00 0.00 0.00 85 1013.2
20260831070717 83 168 2.0 2.0 0.00 0.00 0.00 86 1013.2
20260831070217 83 125 2.0 2.0 0.00 0.00 0.00 86 1013.2
20260831065717 83 150 1.0 2.0 0.00 0.00 0.00 85 1013.3
20260831065217 83 206 1.0 2.0 0.00 0.00 0.00 85 1013.3
20260831064717 84 169 1.0 2.0 0.00 0.00 0.00 85 1013.3
20260831064218 84 165 2.0 3.0 0.00 0.00 0.00 85 1013.4
20260831063717 84 115 1.0 3.0 0.00 0.00 0.00 85 1013.3
20260831063217 84 134 1.0 3.0 0.00 0.00 0.00 85 1013.4
20260831062218 84 107 1.0 3.0 0.00 0.00 0.00 85 1013.4
20260831061703 84 153 1.0 3.0 0.00 0.00 0.00 84 1013.4
20260831061203 84 121 2.0 4.0 0.00 0.00 0.00 84 1013.3
20260831060647 84 186 2.0 4.0 0.00 0.00 0.00 84 1013.3
20260831055649 84 149 2.0 3.0 0.00 0.00 0.00 84 1013.2
20260831055154 84 134 2.0 3.0 0.00 0.00 0.00 84 1013.3
20260831054650 84 114 2.0 4.0 0.00 0.00 0.00 84 1013.2
20260831054153 85 160 2.0 4.0 0.00 0.00 0.00 83 1013.2
20260831053650 85 86 2.0 4.0 0.00 0.00 0.00 83 1013.2
20260831053155 85 170 2.0 4.0 0.00 0.00 0.00 83 1013.2
20260831052648 85 142 2.0 4.0 0.00 0.00 0.00 83 1013.1
20260831052153 85 132 2.0 4.0 0.00 0.00 0.00 83 1013.2
20260831051133 85 148 2.0 4.0 0.00 0.00 0.00 82 1013.3
20260831050118 85 183 2.0 4.0 0.00 0.00 0.00 82 1013.3
20260831045603 85 98 2.0 4.0 0.00 0.00 0.00 82 1013.2
20260831045104 85 159 2.0 4.0 0.00 0.00 0.00 82 1013.1
20260831044551 85 171 2.0 4.0 0.00 0.00 0.00 81 1013.1
20260831044049 85 125 2.0 5.0 0.00 0.00 0.00 81 1013.1
20260831043551 85 117 3.0 6.0 0.00 0.00 0.00 81 1013.0
20260831043049 85 175 2.0 6.0 0.00 0.00 0.00 81 1013.0
20260831042549 85 138 2.0 6.0 0.00 0.00 0.00 81 1013.0
20260831042050 85 155 3.0 8.0 0.00 0.00 0.00 81 1013.0
20260831041549 85 149 3.0 8.0 0.00 0.00 0.00 81 1013.0
20260831041050 85 120 3.0 7.0 0.00 0.00 0.00 81 1012.9
20260831035551 85 145 3.0 5.0 0.00 0.00 0.00 80 1012.9
20260831035050 86 134 2.0 5.0 0.00 0.00 0.00 79 1012.9
20260831034548 86 120 2.0 5.0 0.00 0.00 0.00 79 1012.8
20260831034047 86 173 2.0 7.0 0.00 0.00 0.00 78 1012.8
20260831033548 86 100 2.0 7.0 0.00 0.00 0.00 78 1012.8
20260831033048 86 129 2.0 7.0 0.00 0.00 0.00 77 1012.8
20260831032547 86 136 2.0 7.0 0.00 0.00 0.00 77 1012.8
20260831032048 86 90 2.0 6.0 0.00 0.00 0.00 77 1012.7
20260831031548 86 132 2.0 6.0 0.00 0.00 0.00 77 1012.7
20260831030549 86 129 2.0 8.0 0.00 0.00 0.00 77 1012.6
20260831030049 86 137 2.0 6.0 0.00 0.00 0.00 77 1012.5
20260831025549 86 145 2.0 6.0 0.00 0.00 0.00 76 1012.4
20260831025048 86 115 2.0 6.0 0.00 0.00 0.00 76 1012.4
20260831024548 86 149 2.0 6.0 0.00 0.00 0.00 76 1012.3